[[{"header":{"parameterUnit":"m.s-1","parameterCategory":1,"la1":30.2991,"la2":30.254,"lo1":-89.0895,"lo2":-89.0444,"dy":0.0017,"dx":0.0017,"nx":28,"ny":28,"refTime":"2025-04-10T09:00:00:Z","depth":0,"parameterNumber":2,"parameterNumberName":"U-component_of_WINDS"},"data":[0,0,0,0,0,0,0,0,0,0,0,0,0,0,0,0,0,0,0,0,0,0,0,0,0,0,0,0,0,0,0,0,0,0,0,0,0,0,0,0,0,0,0,0,0,0,0,0,0,0,0,0,0,0,0,0,0,0,4.8479,4.8481,0,4.8581,4.8583,4.8584,4.8468,4.8464,4.8459,4.8455,4.8564,4.8571,4.8578,0,0,0,0,0,0,0,0,0,0,0,0,0,4.819,4.8196,4.8479,4.8481,4.8482,4.8581,4.8583,4.8584,4.8469,4.8463,4.8458,4.8453,4.8562,4.857,4.8578,0,0,0,0,0,0,0,0,0,0,0,0,0,4.8306,4.8198,4.8479,4.8436,4.8433,4.8581,4.8583,4.8584,4.847,4.8463,4.8457,4.8451,4.8559,4.8569,4.8579,4.8776,0,0,4.8611,4.8616,0,0,0,0,0,0,0,0,4.83,4.8317,4.8441,4.8439,4.8436,4.8505,4.852,4.8649,4.8471,4.8456,4.8455,4.8447,4.855,4.8561,4.8594,4.8781,4.8785,4.8612,4.8619,4.8623,4.8626,0,0,0,0,0,0,0,4.8292,4.8312,4.852,4.8443,4.844,4.8414,4.8423,4.8544,4.8539,4.8457,4.8449,4.8462,4.8547,4.8585,4.8596,4.8787,4.8612,4.8621,4.8628,4.8632,4.9142,4.9149,0,0,0,0,0,0,4.8288,4.8306,4.8516,4.8523,4.835,4.8424,4.8434,4.849,4.8537,4.8538,4.8468,4.8456,4.857,4.8584,4.86,4.8834,4.8623,4.8633,4.8639,4.9135,4.9143,4.9151,0,0,0,0,0,0,4.8282,4.8308,4.8512,4.8412,4.8436,4.8436,4.8499,4.8495,4.8532,4.8545,4.8544,4.8506,4.8565,4.8585,4.8733,4.8836,4.8638,4.8647,4.9126,4.9137,4.9147,4.9304,0,0,0,0,0,0,4.8274,4.8306,4.838,4.8415,4.8442,4.8643,4.8505,4.8502,4.855,4.8536,4.8581,4.8582,4.8562,4.8718,4.8743,4.8847,4.8655,4.9117,4.9131,4.9144,4.9289,4.9319,4.9344,0,0,0,0,0,4.8264,4.842,4.8384,4.841,4.8533,4.8649,4.8665,4.8637,4.8559,4.8634,4.8642,4.8581,4.882,4.8734,4.8762,4.887,4.911,4.9127,4.9143,4.9277,4.9313,4.9343,0,0,0,0,0,0,4.8398,4.8424,4.8384,4.8555,4.8601,4.8629,4.8722,4.8675,4.8745,4.8729,4.8692,4.8703,4.8861,4.888,4.8783,4.9064,4.8953,4.8976,4.9046,4.908,4.9106,4.9099,4.8664,0,0,0,0,0,4.8447,4.8538,4.8556,4.8705,4.873,4.8723,4.8772,4.8747,4.8793,4.8812,4.8831,4.888,4.8966,4.9023,4.9103,4.9291,4.9301,4.938,4.9407,4.9429,4.9449,4.9553,4.9588,4.9205,4.9205,4.9204,0,0,4.8551,4.8576,4.8635,4.8733,4.8765,4.8862,4.874,4.8846,4.8918,4.8828,4.8969,4.8986,4.9038,4.9207,4.9283,4.9228,4.9557,4.945,4.9467,4.9476,4.9573,4.9609,4.9642,4.9216,4.9214,4.9212,0,0,4.8788,4.8815,4.8943,4.8978,4.9028,4.9023,4.9054,4.909,4.9097,4.9238,4.9173,4.9259,4.9407,4.9448,4.9488,4.9742,4.969,4.977,4.9912,5.0013,5.0043,5.007,5.0163,5.0196,4.979,4.979,4.979,0,4.891,4.9051,4.9016,4.9128,4.9174,4.9096,4.9227,4.9263,4.9338,4.9372,4.9309,4.9495,4.9525,4.9704,4.9766,4.98,4.9836,4.9765,5.0041,5.0068,5.0092,5.018,5.0215,4.98,4.9798,4.9798,4.9797,0,4.92,4.9299,4.9397,4.947,4.9527,4.9648,4.9633,4.9695,4.9665,4.9667,4.9813,4.9846,4.9932,4.9972,4.9944,5.0148,5.0113,5.0046,4.9934,5.0139,5.0221,5.0254,4.9813,4.981,4.9807,4.9805,0,0,4.9524,4.9577,4.9614,4.9647,4.9697,4.9774,4.9892,4.9975,5.0031,5.0085,5.0185,5.0314,5.0253,5.0299,5.0274,5.0363,5.0565,5.0286,5.0286,5.0338,5.0795,5.0846,5.0885,5.053,5.0536,5.0541,5.0791,0,4.9764,4.9967,4.994,5.0137,5.0229,5.0158,5.0261,5.0305,5.031,5.039,5.0396,5.0489,5.04,5.0428,5.0512,5.0523,5.0657,5.0504,5.0625,5.063,5.0616,5.0928,5.0981,5.1216,5.0823,5.0828,5.0832,0,5.007,5.0135,5.0341,5.0378,5.0416,5.051,5.0585,5.0662,5.071,5.0708,5.076,5.0721,5.0842,5.0727,5.0895,5.0792,5.084,5.0853,5.0861,5.0872,5.0744,5.0949,5.1289,5.1325,5.0882,5.0878,5.0875,0,5.0289,5.0428,5.0569,5.0599,5.0646,5.0714,5.0737,5.0779,5.0831,5.0897,5.0931,5.1011,5.1056,5.112,5.1104,5.1021,5.1276,5.116,5.128,5.1281,5.1338,5.1335,5.1692,5.1366,5.1366,5.1365,5.1364,0,5.056,5.0689,5.0668,5.0755,5.0899,5.0867,5.1011,5.1025,5.1063,5.1153,5.1096,5.1183,5.1155,5.1241,5.123,5.1372,5.1392,5.1395,5.1391,5.1401,5.1401,5.1433,5.1417,5.1374,5.1372,5.1371,5.1369,0,5.0829,5.0819,5.0969,5.1001,5.1012,5.1117,5.1145,5.1229,5.1229,5.1345,5.137,5.1372,5.147,5.146,5.157,5.1563,5.174,5.1715,5.1723,5.1718,5.184,5.1829,5.2231,5.2284,5.1923,5.1926,5.1929,0,5.1003,5.1101,5.1143,5.1199,5.1227,5.1317,5.137,5.1344,5.1402,5.1465,5.1542,5.1634,5.1707,5.1868,5.188,5.1965,5.1943,5.2078,5.1956,5.1964,5.1948,5.1943,5.1953,5.2103,5.2107,5.2111,5.2113,0,5.1314,5.1305,5.1383,5.1461,5.1526,5.1586,5.164,5.1689,5.1668,5.1737,5.1836,5.1892,5.2005,5.2099,5.2179,5.2204,5.2158,5.2152,5.2184,5.2197,5.2198,5.2201,5.1791,5.2143,5.214,5.2138,5.2136,5.2135,5.1543,5.1627,5.167,5.176,5.1798,5.185,5.193,5.1941,5.2023,5.2111,5.2091,5.2204,5.2252,5.2355,5.2388,5.2477,5.2429,5.2475,5.2488,5.25,5.2515,5.2183,5.2492,5.2491,5.249,5.2489,5.2489,0,5.1853,5.1877,5.196,5.2037,5.2108,5.2055,5.2113,5.2177,5.2276,5.2324,5.2397,5.2512,5.2603,5.2623,5.2711,5.2778,5.2759,5.2803,5.2798,5.2805,5.2553,5.2516,5.2817,5.2817,5.2817,5.2817,5.2817,5.2817,5.2022,5.2163,5.2159,5.2319,5.2342,5.2451,5.2489,5.2538,5.2576,5.2707,5.2782,5.2794,5.2832,5.2922,5.3004,5.3007,5.3043,5.3096,5.3091,5.2855,5.2823,5.2791,5.2757,5.3103,5.3104,5.3337,5.3339,5.334]},{"header":{"parameterUnit":"m.s-1","parameterCategory":1,"la1":30.2991,"la2":30.254,"lo1":-89.0895,"lo2":-89.0444,"dy":0.0017,"dx":0.0017,"nx":28,"ny":28,"refTime":"2025-04-10T09:00:00:Z","depth":0,"parameterNumber":3,"parameterNumberName":"V-component_of_WINDS"},"data":[0,0,0,0,0,0,0,0,0,0,0,0,0,0,0,0,0,0,0,0,0,0,0,0,0,0,0,0,0,0,0,0,0,0,0,0,0,0,0,0,0,0,0,0,0,0,0,0,0,0,0,0,0,0,0,0,0,0,-2.5773,-2.5773,0,-2.5842,-2.5843,-2.5844,-2.5849,-2.5848,-2.5847,-2.5846,-2.5917,-2.592,-2.5922,0,0,0,0,0,0,0,0,0,0,0,0,0,-2.5643,-2.5646,-2.5773,-2.5773,-2.5774,-2.5842,-2.5843,-2.5844,-2.5849,-2.5848,-2.5847,-2.5846,-2.5916,-2.5919,-2.5922,0,0,0,0,0,0,0,0,0,0,0,0,0,-2.5705,-2.5647,-2.5772,-2.5785,-2.5787,-2.5842,-2.5843,-2.5844,-2.5849,-2.5848,-2.5847,-2.5846,-2.5915,-2.5919,-2.5923,-2.597,0,0,-2.5935,-2.5937,0,0,0,0,0,0,0,0,-2.5701,-2.571,-2.5782,-2.5784,-2.5786,-2.5836,-2.5823,-2.5886,-2.5849,-2.5825,-2.5846,-2.5845,-2.5891,-2.5897,-2.5912,-2.5973,-2.5977,-2.5935,-2.5938,-2.5939,-2.594,0,0,0,0,0,0,0,-2.5697,-2.5707,-2.58,-2.5783,-2.5786,-2.5787,-2.5794,-2.5835,-2.5864,-2.5827,-2.5828,-2.5836,-2.5892,-2.5909,-2.5914,-2.5978,-2.5935,-2.5939,-2.5941,-2.5942,-2.608,-2.6082,0,0,0,0,0,0,-2.5691,-2.5703,-2.5798,-2.5802,-2.574,-2.579,-2.5798,-2.5821,-2.5863,-2.5869,-2.5837,-2.5836,-2.5902,-2.5909,-2.5916,-2.5974,-2.5939,-2.5943,-2.5945,-2.6079,-2.6081,-2.6082,0,0,0,0,0,0,-2.5688,-2.5699,-2.5795,-2.5753,-2.5765,-2.5794,-2.5819,-2.5823,-2.584,-2.5871,-2.5876,-2.5849,-2.5902,-2.5911,-2.5957,-2.5977,-2.5945,-2.5948,-2.6078,-2.608,-2.6082,-2.609,0,0,0,0,0,0,-2.5684,-2.5698,-2.5716,-2.5753,-2.5767,-2.5834,-2.582,-2.5825,-2.5846,-2.5846,-2.5883,-2.5888,-2.5902,-2.5951,-2.5961,-2.5981,-2.5951,-2.6076,-2.6079,-2.6081,-2.6088,-2.6092,-2.6095,0,0,0,0,0,-2.5679,-2.5716,-2.5717,-2.5729,-2.5791,-2.5835,-2.5843,-2.5858,-2.5848,-2.5866,-2.5886,-2.5887,-2.5973,-2.5955,-2.5967,-2.5989,-2.6075,-2.6078,-2.6081,-2.6086,-2.6091,-2.6095,0,0,0,0,0,0,-2.568,-2.5721,-2.5723,-2.5772,-2.58,-2.5836,-2.586,-2.5863,-2.5894,-2.5893,-2.591,-2.5918,-2.5963,-2.5981,-2.596,-2.6037,-2.6023,-2.6028,-2.6023,-2.6028,-2.6032,-2.6026,-2.5954,0,0,0,0,0,-2.5686,-2.5719,-2.5753,-2.5793,-2.5807,-2.5831,-2.5851,-2.586,-2.589,-2.5902,-2.5925,-2.5954,-2.5987,-2.6009,-2.6041,-2.6091,-2.6099,-2.6112,-2.6115,-2.6118,-2.6122,-2.6149,-2.6155,-2.6092,-2.6092,-2.6092,0,0,-2.5699,-2.5725,-2.5745,-2.5794,-2.5817,-2.585,-2.5841,-2.5877,-2.5902,-2.5907,-2.5951,-2.597,-2.6003,-2.605,-2.6072,-2.6066,-2.6141,-2.6122,-2.6124,-2.6126,-2.6153,-2.6159,-2.6164,-2.6094,-2.6094,-2.6093,0,0,-2.5739,-2.5762,-2.5798,-2.5821,-2.5856,-2.5872,-2.588,-2.5916,-2.5928,-2.5973,-2.5978,-2.6007,-2.6065,-2.6088,-2.6107,-2.6156,-2.6157,-2.6166,-2.6185,-2.6211,-2.6216,-2.622,-2.6237,-2.6243,-2.6171,-2.6171,-2.6171,0,-2.575,-2.58,-2.5816,-2.5852,-2.5873,-2.588,-2.5916,-2.5938,-2.5981,-2.5996,-2.5989,-2.6061,-2.6083,-2.6136,-2.6148,-2.6164,-2.6174,-2.6162,-2.6214,-2.6219,-2.6223,-2.6239,-2.6245,-2.6171,-2.6171,-2.6171,-2.6171,0,-2.5812,-2.5847,-2.5872,-2.5914,-2.5938,-2.5974,-2.5995,-2.6017,-2.6025,-2.6041,-2.6086,-2.6114,-2.6152,-2.6166,-2.6173,-2.6219,-2.6214,-2.6211,-2.6197,-2.623,-2.6245,-2.6251,-2.6172,-2.6172,-2.6172,-2.6172,0,0,-2.5854,-2.5904,-2.5913,-2.5931,-2.597,-2.5998,-2.6034,-2.6071,-2.609,-2.612,-2.615,-2.6199,-2.6195,-2.6217,-2.6227,-2.625,-2.6286,-2.6243,-2.6244,-2.625,-2.6338,-2.634,-2.6347,-2.6288,-2.6289,-2.629,-2.6335,0,-2.5897,-2.5961,-2.5977,-2.6031,-2.6064,-2.6071,-2.6102,-2.6129,-2.6146,-2.6175,-2.6194,-2.6227,-2.6221,-2.6234,-2.6257,-2.6277,-2.6304,-2.6274,-2.6315,-2.6317,-2.6306,-2.6355,-2.6357,-2.6399,-2.6341,-2.6342,-2.6343,0,-2.5956,-2.5987,-2.6045,-2.608,-2.6094,-2.6122,-2.6157,-2.6185,-2.6216,-2.6227,-2.6251,-2.6259,-2.6296,-2.6282,-2.6333,-2.6312,-2.6331,-2.6343,-2.6345,-2.6348,-2.6331,-2.6359,-2.6412,-2.6418,-2.6353,-2.6352,-2.6351,0,-2.5979,-2.6036,-2.6078,-2.6094,-2.6135,-2.6155,-2.6173,-2.6203,-2.6224,-2.6255,-2.6269,-2.6304,-2.6323,-2.6349,-2.6366,-2.6354,-2.6416,-2.6403,-2.6425,-2.6425,-2.6437,-2.6436,-2.6493,-2.6451,-2.6451,-2.645,-2.645,0,-2.6026,-2.6061,-2.6089,-2.6114,-2.6154,-2.6171,-2.621,-2.6228,-2.6254,-2.6283,-2.6292,-2.6319,-2.634,-2.637,-2.6384,-2.6424,-2.6433,-2.6442,-2.6445,-2.6441,-2.6439,-2.6452,-2.6449,-2.6452,-2.6452,-2.6451,-2.6451,0,-2.6058,-2.6078,-2.6124,-2.616,-2.6169,-2.6197,-2.6227,-2.6252,-2.6269,-2.6306,-2.6315,-2.6342,-2.6377,-2.6397,-2.6442,-2.6451,-2.6496,-2.6498,-2.6485,-2.6486,-2.6507,-2.6504,-2.6573,-2.6583,-2.6535,-2.6535,-2.6536,0,-2.6085,-2.6112,-2.6151,-2.6171,-2.6189,-2.6222,-2.6244,-2.6262,-2.6284,-2.6321,-2.6342,-2.6378,-2.6408,-2.6465,-2.6488,-2.6522,-2.6525,-2.6546,-2.653,-2.6524,-2.6524,-2.6521,-2.6524,-2.6549,-2.6549,-2.655,-2.655,0,-2.6132,-2.614,-2.6172,-2.6206,-2.6232,-2.626,-2.6288,-2.6304,-2.6327,-2.6352,-2.6389,-2.6412,-2.6458,-2.6494,-2.653,-2.6548,-2.6553,-2.6555,-2.6562,-2.6557,-2.6548,-2.6552,-2.6492,-2.6553,-2.6553,-2.6553,-2.6552,-2.6552,-2.6162,-2.6186,-2.6217,-2.6251,-2.6274,-2.63,-2.6325,-2.6345,-2.6376,-2.6415,-2.6424,-2.6462,-2.6492,-2.6542,-2.6561,-2.6591,-2.6587,-2.6597,-2.66,-2.6601,-2.6602,-2.6544,-2.6598,-2.6598,-2.6598,-2.6598,-2.6598,0,-2.6208,-2.6228,-2.6259,-2.6298,-2.6325,-2.6327,-2.6359,-2.6381,-2.6415,-2.6442,-2.6472,-2.6514,-2.6548,-2.6574,-2.661,-2.6629,-2.6632,-2.6638,-2.6636,-2.664,-2.6604,-2.6594,-2.6635,-2.6635,-2.6635,-2.6635,-2.6635,-2.6635,-2.6235,-2.6275,-2.6288,-2.634,-2.636,-2.6398,-2.6415,-2.6439,-2.6461,-2.6508,-2.6537,-2.6553,-2.658,-2.6618,-2.665,-2.6657,-2.6669,-2.6674,-2.6681,-2.6646,-2.6642,-2.6639,-2.6629,-2.6677,-2.6677,-2.6714,-2.6714,-2.6715]}]]